Regional Weather Roundup
Issued by NWS Raleigh/Durham, NC

Home | Current Version | Previous Version | Text Only | Print | Product List | Glossary On
Versions: 1 2 3 4 5 6 7 8 9 10 11 12 13 14 15 16 17 18 19 20 21 22 23 24 25 26 27 28 29 30 31 32 33 34 35 36 37 38 39 40 41 42 43 44 45 46 47 48 49 50
000
ASUS42 KRAH 301810
RWRRAH
NORTH CAROLINA WEATHER ROUNDUP
NATIONAL WEATHER SERVICE RALEIGH NC
200 PM EDT WED JUL 30 2014

NOTE: "FAIR" INDICATES FEW OR NO CLOUDS BELOW 12,000 FEET WITH NO
SIGNIFICANT WEATHER AND/OR OBSTRUCTIONS TO VISIBILITY.

NCZ001-053-055-056-065-067-301900-
WESTERN NORTH CAROLINA

CITY           SKY/WX    TMP DP  RH WIND       PRES   REMARKS
ASHEVILLE      FAIR      74  52  46 VRB6      30.13F
JEFFERSON      FAIR      67  48  50 N5        30.17S
MORGANTON      FAIR      78  54  43 S5        30.15S
HICKORY        FAIR      77  54  44 VRB3      30.10F
RUTHERFORDTON  FAIR      76  57  51 NE5       30.10F
MOUNT AIRY     FAIR      76  55  47 CALM      30.09F
BOONE          FAIR      72  54  53 S5        30.16F
$$

NCZ021-022-025-041-071-084-088-301900-
CENTRAL NORTH CAROLINA

CITY           SKY/WX    TMP DP  RH WIND       PRES   REMARKS
CHARLOTTE      FAIR      81  59  47 E6        30.08F
GREENSBORO     PTSUNNY   79  61  53 VRB3      30.08F
WINSTON-SALEM  FAIR      77  57  50 CALM      30.10F
RALEIGH-DURHAM PTSUNNY   79  63  57 NE6       30.08F
FORT BRAGG     FAIR      83  64  50 VRB6      30.04F
FAYETTEVILLE   PTSUNNY   84  62  47 E6        30.04F
BURLINGTON     PTSUNNY   78  61  55 NE3       30.08F
LAURINBURG     FAIR      85  60  42 VRB5      30.05F
$$

NCZ011-015-027-028-043-044-047-080-103-301900-
NORTHEASTERN NORTH CAROLINA

CITY           SKY/WX    TMP DP  RH WIND       PRES   REMARKS
ROCKY MT-WILSO PTSUNNY   81  61  50 CALM      30.08F
GREENVILLE     FAIR      81  63  54 E5        30.08F
WASHINGTON     FAIR      80  61  52 CALM      30.07F
ELIZABETH CITY FAIR      80  61  52 CALM      30.07F
MANTEO         NOT AVBL
CAPE HATTERAS  FAIR      82  62  50 N8G18     30.06S
$$

NCZ078-087-090-091-093-098-101-301900-
SOUTHEASTERN NORTH CAROLINA

CITY           SKY/WX    TMP DP  RH WIND       PRES   REMARKS
LUMBERTON      FAIR      85  60  42 MISG      30.03F
GOLDSBORO      FAIR      81  66  60 VRB2      30.04F
KINSTON        FAIR      82  63  51 SE6       30.07F
KENANSVILLE    FAIR      82  61  48 E3        30.07S
NEW BERN       FAIR      85  59  41 VRB6      30.07S
CHERRY POINT   FAIR      82  63  52 NE13      30.07S
BEAUFORT       FAIR      82  65  56 E9        30.05F
JACKSONVILLE   FAIR      84  61  45 SE6       30.04F
WILMINGTON     FAIR      84  65  52 E10G18    30.05S
$$



USA.gov is the U.S. government's official web portal to all federal, state and local government web resources and services.